Uvalde, TX

10:54 AM CDT on April 19, 2018 (GMT -0500)
Garner

Weather History for KUVA - March, 2013

Change the Weather History Date:

Sunday, March 10, 2013

  Actual Average (KHDO) Record (KHDO)
Temperature  
Mean Temperature 60 °F -  
Max Temperature 68 °F 69 °F 91 °F (2018)
Min Temperature 50 °F 47 °F 28 °F (1998)
Degree Days  
Heating Degree Days 5    
Growing Degree Days 10 (Base 50)    
Moisture  
Dew Point 35 °F    
Average Humidity 42    
Maximum Humidity 86    
Minimum Humidity 19    
Precipitation  
Precipitation 0.00 in - - ()
Sea Level Pressure  
Sea Level Pressure 29.95 in    
Wind  
Wind Speed 11 mph (North)    
Max Wind Speed 22 mph    
Max Gust Speed 30 mph    
Visibility 10 miles    
Events Rain    
Averages and records for this station are not official NWS values.
T = Trace of Precipitation, MM = Missing Value Source: NWS Daily Summary

Daily Weather History Graph

Daily Weather History Graph

Search for Another Location

Airport or City:

Trip Planner

Search our weather history database for the weather conditions in past years. The results will help you decide how hot, cold, wet, or windy it might be!

Date:

Astronomy

Mar. 10, 2013 Rise Set
Actual Time 7:54 AM CDT 7:44 PM CDT
Civil Twilight 7:30 AM CDT 8:08 PM CDT
Nautical Twilight 7:02 AM CDT 8:35 PM CDT
Astronomical Twilight 6:35 AM CDT 9:03 PM CDT
Moon 6:52 AM CDT (3/10) 6:54 PM CDT (3/10)
Length of Visible Light 12h 37m
Length of Day
11h 50m
Waning Crescent, 2% of the Moon is Illuminated
Mar 10
Waning Crescent
Mar 11
New
Mar 19
First Quarter
Mar 27
Full
Apr 2
Last Quarter

Hourly Weather History & Observations

Time (CDT) Temp. Dew Point Humidity Pressure Visibility Wind Dir Wind Speed Gust Speed Precip Events Conditions
12:15 AM 64.9 °F 60.6 °F 86% 29.72 in 10.0 mi North 17.3 mph 21.9 mph N/A   Mostly Cloudy
12:35 AM 60.4 °F 55.6 °F 84% 29.77 in 10.0 mi North 15.0 mph 25.3 mph N/A Rain Light Rain
12:55 AM 59.0 °F 54.7 °F 86% 29.76 in 10.0 mi North 17.3 mph 26.5 mph N/A Rain Light Rain
1:15 AM 59.0 °F 54.7 °F 86% 29.76 in 10.0 mi North 11.5 mph - N/A   Overcast
1:35 AM 59.0 °F 54.5 °F 85% 29.76 in 10.0 mi North 9.2 mph - N/A   Overcast
1:55 AM 59.0 °F 54.3 °F 84% 29.78 in 10.0 mi NNE 9.2 mph - N/A   Overcast
3:15 AM 59.7 °F 54.3 °F 82% 29.78 in 10.0 mi North 5.8 mph - N/A   Mostly Cloudy
3:35 AM 59.0 °F 53.6 °F 82% 29.78 in 10.0 mi North 6.9 mph - N/A   Mostly Cloudy
3:55 AM 59.0 °F 53.6 °F 82% 29.79 in 10.0 mi NNW 6.9 mph - N/A   Mostly Cloudy
4:15 AM 59.0 °F 54.1 °F 84% 29.79 in 10.0 mi NNW 4.6 mph - N/A   Mostly Cloudy
4:35 AM 59.0 °F 53.6 °F 82% 29.80 in 10.0 mi NNW 4.6 mph - N/A   Mostly Cloudy
4:55 AM 60.3 °F 50.7 °F 71% 29.80 in 10.0 mi NNW 6.9 mph - N/A   Scattered Clouds
5:15 AM 60.1 °F 47.5 °F 63% 29.81 in 10.0 mi NNW 6.9 mph - N/A   Scattered Clouds
5:35 AM 59.0 °F 45.7 °F 61% 29.82 in 10.0 mi North 6.9 mph - N/A   Clear
5:55 AM 57.7 °F 46.0 °F 65% 29.84 in 10.0 mi North 4.6 mph - N/A   Clear
6:15 AM 57.7 °F 46.4 °F 66% 29.85 in 10.0 mi North 4.6 mph - N/A   Scattered Clouds
7:35 AM 55.4 °F 41.7 °F 60% 29.88 in 10.0 mi NNW 5.8 mph - N/A   Clear
7:55 AM 55.4 °F 42.1 °F 61% 29.89 in 10.0 mi NNW 6.9 mph - N/A   Clear
8:15 AM 55.4 °F 42.4 °F 62% 29.90 in 10.0 mi NNW 8.1 mph - N/A   Clear
8:35 AM 55.4 °F 40.8 °F 58% 29.91 in 10.0 mi NNW 6.9 mph - N/A   Clear
8:55 AM 55.8 °F 41.7 °F 59% 29.92 in 10.0 mi NNW 6.9 mph - N/A   Clear
9:15 AM 57.7 °F 38.1 °F 48% 29.93 in 10.0 mi NNW 18.4 mph - N/A   Clear
9:35 AM 57.7 °F 35.4 °F 43% 29.95 in 10.0 mi NNW 19.6 mph 27.6 mph N/A   Clear
9:55 AM 57.7 °F 36.0 °F 44% 29.96 in 10.0 mi NNW 20.7 mph 27.6 mph N/A   Clear
10:15 AM 57.7 °F 33.4 °F 40% 29.97 in 10.0 mi NNW 21.9 mph 29.9 mph N/A   Clear
10:35 AM 58.8 °F 32.4 °F 37% 29.98 in 10.0 mi North 20.7 mph 28.8 mph N/A   Clear
10:55 AM 59.0 °F 30.7 °F 34% 29.98 in 10.0 mi North 21.9 mph 29.9 mph N/A   Clear
11:15 AM 60.3 °F 31.1 °F 33% 29.99 in 10.0 mi NNW 19.6 mph 25.3 mph N/A   Clear
11:35 AM 60.8 °F 29.5 °F 31% 30.00 in 10.0 mi NNW 17.3 mph 24.2 mph N/A   Clear
11:55 AM 61.9 °F 30.6 °F 31% 30.01 in 10.0 mi North 13.8 mph 18.4 mph N/A   Clear
12:15 PM 64.2 °F 31.1 °F 29% 30.02 in 10.0 mi North 11.5 mph 21.9 mph N/A   Clear
12:35 PM 65.3 °F 29.7 °F 26% 30.01 in 10.0 mi North 15.0 mph 25.3 mph N/A   Clear
12:55 PM 65.3 °F 29.3 °F 26% 30.01 in 10.0 mi North 11.5 mph - N/A   Clear
1:15 PM 68.0 °F 31.1 °F 25% 30.01 in 10.0 mi North 10.4 mph 21.9 mph N/A   Clear
1:35 PM 66.0 °F 29.8 °F 26% 30.00 in 10.0 mi NNW 13.8 mph 19.6 mph N/A   Clear
1:55 PM 68.0 °F 29.7 °F 24% 29.99 in 10.0 mi NNE 13.8 mph 17.3 mph N/A   Clear
2:15 PM 68.0 °F 29.5 °F 24% 29.98 in 10.0 mi North 12.7 mph 25.3 mph N/A   Clear
2:35 PM 68.0 °F 28.4 °F 23% 29.98 in 10.0 mi NNW 11.5 mph 18.4 mph N/A   Clear
2:55 PM 68.0 °F 27.5 °F 22% 29.97 in 10.0 mi North 16.1 mph 19.6 mph N/A   Clear
3:15 PM 68.2 °F 26.4 °F 21% 29.96 in 10.0 mi North 13.8 mph 21.9 mph N/A   Clear
3:35 PM 68.4 °F 27.3 °F 22% 29.96 in 10.0 mi North 11.5 mph 18.4 mph N/A   Clear
3:55 PM 68.0 °F 25.5 °F 20% 29.96 in 10.0 mi NNW 10.4 mph 16.1 mph N/A   Clear
4:15 PM 68.0 °F 25.5 °F 20% 29.96 in 10.0 mi North 6.9 mph - N/A   Clear
4:35 PM 68.4 °F 25.7 °F 20% 29.95 in 10.0 mi NE 10.4 mph - N/A   Clear
4:55 PM 68.4 °F 25.0 °F 20% 29.95 in 10.0 mi North 8.1 mph 21.9 mph N/A   Clear
5:15 PM 68.5 °F 24.6 °F 19% 29.95 in 10.0 mi NNW 16.1 mph 20.7 mph N/A   Clear
5:35 PM 68.5 °F 24.8 °F 19% 29.95 in 10.0 mi North 11.5 mph - N/A   Clear
5:55 PM 68.2 °F 25.0 °F 20% 29.96 in 10.0 mi North 15.0 mph 18.4 mph N/A   Clear
6:15 PM 68.0 °F 23.9 °F 19% 29.96 in 10.0 mi North 11.5 mph 21.9 mph N/A   Clear
6:35 PM 68.0 °F 23.9 °F 19% 29.97 in 10.0 mi North 15.0 mph 19.6 mph N/A   Clear
6:55 PM 68.0 °F 23.9 °F 19% 29.98 in 10.0 mi North 13.8 mph 19.6 mph N/A   Clear
7:15 PM 66.2 °F 23.0 °F 19% 29.99 in 10.0 mi North 11.5 mph 18.4 mph N/A   Clear
7:35 PM 64.4 °F 23.0 °F 21% 30.00 in 10.0 mi North 10.4 mph 19.6 mph N/A   Clear
7:55 PM 61.7 °F 23.4 °F 23% 30.00 in 10.0 mi North 11.5 mph - N/A   Clear
8:15 PM 60.6 °F 23.9 °F 25% 30.01 in 10.0 mi North 9.2 mph - N/A   Clear
8:35 PM 59.7 °F 24.8 °F 26% 30.03 in 10.0 mi North 8.1 mph - N/A   Clear
8:55 PM 58.3 °F 25.5 °F 28% 30.05 in 10.0 mi North 8.1 mph - N/A   Clear
9:15 PM 57.7 °F 27.0 °F 31% 30.07 in 10.0 mi North 4.6 mph - N/A   Clear
9:35 PM 57.7 °F 27.5 °F 31% 30.09 in 10.0 mi North 3.5 mph - N/A   Clear
9:55 PM 57.6 °F 27.9 °F 32% 30.10 in 10.0 mi NNW 3.5 mph - N/A   Clear
10:15 PM 55.4 °F 28.0 °F 35% 30.12 in 10.0 mi Calm Calm - N/A   Clear
10:55 PM 52.7 °F 27.3 °F 38% 30.14 in 10.0 mi NNW 8.1 mph - N/A   Clear
11:15 PM 52.7 °F 25.5 °F 35% 30.15 in 10.0 mi North 6.9 mph - N/A   Clear
11:35 PM 52.7 °F 25.9 °F 35% 30.16 in 10.0 mi North 6.9 mph - N/A   Clear
11:55 PM 52.7 °F 25.2 °F 34% 30.16 in 10.0 mi North 6.9 mph - N/A   Clear
12:15 AM 52.7 °F 26.1 °F 36% 30.17 in 10.0 mi North 6.9 mph - N/A   Clear
12:35 AM 52.7 °F 25.2 °F 34% 30.17 in 10.0 mi North 6.9 mph - N/A   Clear
12:55 AM 50.2 °F 24.4 °F 37% 30.17 in 10.0 mi North 5.8 mph - N/A   Clear